Flight Track Log - Related Links

Times and Time Zones

All times are in EDT time to prevent confusion due to time zone crossing. See the ASQ5647 flight status page for this flight to view local times or setup timezone preferences in your user account.

Time Position Orientation Groundspeed Altitude Reporting Facility
EDT Latitude Longitude Course Direction KTS MPH feet Rate Location/Type
Sun 03:41:28 PM 33.6500 -84.3833 73° East 163 188 2,800  Level Atlanta TRACON
Sun 03:42:28 PM 33.6667 -84.3167 73° East 272 313 4,800 2,842 Climbing Atlanta TRACON
Sun 03:43:22 PM 33.6833 -84.2167 79° East 303 349 8,200 1,724 Climbing Atlanta TRACON
Sun 03:45:29 PM 33.8631 -84.1964 North 362 417 10,000 1,604 Climbing Atlanta Center
Sun 03:46:29 PM 33.9589 -84.2192 349° North 362 417 13,200 2,950 Climbing Atlanta Center
Sun 03:47:29 PM 34.0403 -84.2394 348° North 349 402 15,900 2,850 Climbing Atlanta Center
Sun 03:48:29 PM 34.1531 -84.2547 354° North 344 396 18,900 2,200 Climbing Atlanta Center
Sun 03:49:29 PM 34.2553 -84.2750 351° North 360 414 20,300 1,550 Climbing Atlanta Center
Sun 03:50:29 PM 34.3722 -84.2603 North 400 460 22,000 1,550 Climbing Atlanta Center
Sun 03:51:29 PM 34.4808 -84.2353 11° North 422 486 23,400 1,550 Climbing Atlanta Center
Sun 03:52:29 PM 34.6039 -84.2053 11° North 443 510 25,100 1,550 Climbing Atlanta Center
Sun 03:53:29 PM 34.7250 -84.1803 10° North 448 516 26,500 1,250 Climbing Atlanta Center
Sun 03:54:29 PM 34.8522 -84.1528 10° North 448 516 27,600 1,050 Climbing Atlanta Center
Sun 03:55:29 PM 34.9858 -84.1200 11° North 461 531 28,600 900 Climbing Atlanta Center
Sun 03:56:29 PM 35.1217 -84.0869 11° North 481 554 29,400 950 Climbing Atlanta Center
Sun 03:57:29 PM 35.2592 -84.0539 11° North 492 566 30,500 1,150 Climbing Atlanta Center
Sun 03:58:29 PM 35.3969 -84.0183 12° North 497 572 31,700 1,200 Climbing Atlanta Center
Sun 03:59:29 PM 35.5367 -83.9878 10° North 503 579 32,900 650 Climbing Atlanta Center
Sun 04:00:29 PM 35.6764 -83.9519 12° North 503 579 33,000 50 Climbing Atlanta Center
Sun 04:01:29 PM 35.8142 -83.9183 11° North 503 579 33,000  Level Atlanta Center
Sun 04:02:29 PM 35.9433 -83.8719 16° North 497 572 33,000  Level Atlanta Center
Sun 04:03:29 PM 36.0789 -83.7844 28° Northeast 492 566 33,000 107 Level Atlanta Center
Sun 04:04:21 PM 36.1808 -83.7186 28° Northeast 496 571 33,200 421 Climbing Indianapolis Center
Sun 04:05:23 PM 36.3092 -83.6389 27° Northeast 510 587 33,800 484 Climbing Indianapolis Center
Sun 04:06:25 PM 36.4383 -83.5553 28° Northeast 520 598 34,200 581 Climbing Indianapolis Center
Sun 04:07:27 PM 36.5844 -83.4631 27° Northeast 534 615 35,000 726 Climbing Indianapolis Center
Sun 04:08:29 PM 36.7183 -83.3781 27° Northeast 534 615 35,700 672 Climbing Indianapolis Center
Sun 04:09:32 PM 36.8578 -83.3189 19° North 527 606 36,400 768 Climbing Indianapolis Center
Sun 04:10:34 PM 36.9975 -83.2628 18° North 524 603 37,300 919 Climbing Indianapolis Center
Sun 04:11:36 PM 37.1336 -83.2111 17° North 511 588 38,300 1,113 Climbing Indianapolis Center
Sun 04:12:38 PM 37.2861 -83.1500 18° North 495 570 39,600 1,161 Climbing Indianapolis Center
Sun 04:13:40 PM 37.4119 -83.1025 17° North 476 548 40,700 677 Climbing Indianapolis Center
Sun 04:14:42 PM 37.5333 -83.0547 17° North 462 532 41,000 145 Climbing Indianapolis Center
Sun 04:15:44 PM 37.6589 -83.0053 17° North 464 534 41,000  Level Indianapolis Center
Sun 04:16:46 PM 37.7839 -82.9550 18° North 468 539 41,000  Level Indianapolis Center
Sun 04:17:48 PM 37.9083 -82.9056 17° North 468 539 41,000  Level Indianapolis Center
Sun 04:18:50 PM 38.0544 -82.8486 17° North 468 539 41,000  Level Indianapolis Center
Sun 04:19:52 PM 38.1806 -82.7986 17° North 468 539 41,000  Level Indianapolis Center
Sun 04:20:55 PM 38.3050 -82.7475 18° North 469 540 41,000  Level Indianapolis Center
Sun 04:21:57 PM 38.4297 -82.6969 18° North 469 540 41,000  Level Indianapolis Center
Sun 04:22:59 PM 38.5558 -82.6467 17° North 469 540 41,000  Level Indianapolis Center
Sun 04:24:01 PM 38.6914 -82.5972 16° North 472 543 41,000  Level Indianapolis Center
Sun 04:25:03 PM 38.8156 -82.5783 North 452 520 41,000  Level Indianapolis Center
Sun 04:26:05 PM 38.9408 -82.5586 North 452 520 41,000  Level Indianapolis Center
Sun 04:27:07 PM 39.0667 -82.5381 North 452 520 41,000  Level Indianapolis Center
Sun 04:28:09 PM 39.2167 -82.5136 North 452 520 41,000 -145 Level Indianapolis Center
Sun 04:29:11 PM 39.3392 -82.4944 North 451 519 40,700 -629 Descending Indianapolis Center
Sun 04:30:13 PM 39.4597 -82.4756 North 444 511 39,700 -1,161 Descending Indianapolis Center
Sun 04:31:15 PM 39.5808 -82.4556 North 443 510 38,300 -1,344 Descending Indianapolis Center
Sun 04:32:18 PM 39.7039 -82.4364 North 443 510 36,900 -1,488 Descending Indianapolis Center
Sun 04:33:20 PM 39.8514 -82.4106 North 445 512 35,200 -1,161 Descending Indianapolis Center
Sun 04:34:22 PM 39.9714 -82.3908 North 444 511 34,500 -581 Descending Indianapolis Center
Sun 04:35:24 PM 40.0872 -82.3722 North 429 494 34,000 -242 Descending Indianapolis Center
Sun 04:36:26 PM 40.2047 -82.3522 North 428 493 34,000 -145 Level Indianapolis Center
Sun 04:37:28 PM 40.3339 -82.3317 North 436 502 33,700 -968 Descending Indianapolis Center
Sun 04:38:30 PM 40.4506 -82.3597 350° North 427 491 32,000 -1,742 Descending Indianapolis Center
Sun 04:39:32 PM 40.5522 -82.4139 338° Northwest 399 459 30,100 -968 Descending Indianapolis Center
Sun 04:40:34 PM 40.6581 -82.4725 337° Northwest 362 417 30,000 -58 Descending Indianapolis Center
Sun 04:41:15 PM 40.7217 -82.5058 338° Northwest 362 417 30,000 -233 Level Cleveland Center
Sun 04:42:17 PM 40.8217 -82.5625 337° Northwest 381 438 29,600 -871 Descending Cleveland Center
Sun 04:43:19 PM 40.9264 -82.6225 337° Northwest 400 460 28,200 -1,776 Descending Cleveland Center
Sun 04:44:22 PM 41.0306 -82.6797 337° Northwest 402 463 25,900 -2,064 Descending Cleveland Center
Sun 04:45:24 PM 41.1317 -82.7353 338° Northwest 393 452 23,900 -2,081 Descending Cleveland Center
Sun 04:46:26 PM 41.2328 -82.7919 337° Northwest 393 452 21,600 -2,226 Descending Cleveland Center
Sun 04:47:28 PM 41.3339 -82.8489 337° Northwest 390 449 19,300 -2,177 Descending Cleveland Center
Sun 04:48:30 PM 41.4331 -82.9047 337° Northwest 386 444 17,100 -2,371 Descending Cleveland Center
Sun 04:49:32 PM 41.5436 -82.9678 337° Northwest 372 428 14,400 -2,561 Descending Cleveland Center
Sun 04:49:52 PM 41.5753 -82.9858 337° Northwest 369 425 13,600 -2,032 Descending Cleveland Center
Sun 04:50:34 PM 41.6425 -83.0222 338° Northwest 372 428 12,300 -923 Descending Cleveland Center
Sun 04:51:36 PM 41.7306 -83.0747 336° Northwest 351 404 12,000 -145 Descending Cleveland Center
Sun 04:52:38 PM 41.8131 -83.1383 330° Northwest 342 394 12,000  Level Cleveland Center
Sun 04:53:43 PM 41.9175 -83.1975 337° Northwest 349 402 12,000 -288 Level Cleveland Center
Sun 04:54:43 PM 41.9964 -83.2194 348° North 343 395 11,400 -492 Descending Cleveland Center
Sun 04:55:45 PM 42.0867 -83.2503 346° North 338 389 11,000 -726 Descending Cleveland Center
Sun 04:56:47 PM 42.1792 -83.2386 North 281 323 9,900 -1,306 Descending Cleveland Center
Sun 04:57:49 PM 42.2406 -83.1928 29° Northeast 269 310 8,300 -1,548 Descending Cleveland Center
Sun 04:58:51 PM 42.3033 -83.1494 27° Northeast 261 300 6,700 -1,500 Descending Cleveland Center
Sun 04:59:53 PM 42.3444 -83.1997 318° Northwest 239 275 5,200 -1,935 Descending Cleveland Center
Sun 05:00:55 PM 42.3092 -83.2683 235° Southwest 226 260 2,700 -1,694 Descending Cleveland Center
Sun 05:01:57 PM 42.2669 -83.3000 209° Southwest 189 217 1,700 -768 Descending Cleveland Center
Sun 05:03:00 PM 42.2289 -83.3253 206° Southwest 159 183 1,100 -571 Descending Cleveland Center
Sun 05:04:00 PM 42.2124 -83.3534 238° Southwest  Level Estimated
Sun 05:11:00 PM 42.2124 -83.3534 238° Southwest  Level Estimated
Sun 05:12:00 PM 42.2124 -83.3534 62° Northeast  Level Estimated

Login

Don't have an account? Register now (free) for customized features, flight alerts, and more!